DECAYED

STARLINK-1346, 45560 (Decayed)

Orbit data source: Space-Track

STARLINK-1346, 45560 was a payload satellite owned by SpaceX/Seattle (US) in LEO that was launched on Wed, 22 Apr 2020 UTC via an FALCON 9 launch vehicle from the Air Force Eastern Test Range (AFETR). Payload-class satellites include a variety of spacecraft equipped with specific instruments for various scientific and technological missions. These include communications satellites like Starlink; space stations such as the ISS; scientific satellites like the Hubble; Earth observation satellites from companies like Planet Labs, Umbra, and HawkEye 360; GPS; miniature CubeSats for education and research; and military/defense satellites.

Not visible in the next 10 days
Identifier
45560, 2020-025AF
Orbit
Decayed
Country
Flag of USUS
Related business
Manufacturer
SpaceX/Seattle
Mission
Decayed Commercial Communications
Bus & Motor
STARLINK, Unknown motor
Mass
260 kg wet, ~248 kg dry
Launch date (UTC)
2020-04-22 (6 years ago)
Launch vehicle
FALCON 9
Launch site
Air Force Eastern Test Range (AFETR)
Object type
Payload
Rocket body
Debris
Shape & HBR
Box + 1 Pan, 10.1 m
Radar Cross Section
13.562 m², Large (>1 m²)

Expand to show TLE details & history
Last TLE update: 8 months ago

TLE from 8 months ago
0 STARLINK-1346
1 45560U 20025AF  25102.05811510  .15908127  12556-4  30076-3 0  9995
2 45560  53.0264  77.3966 0007720 271.0477 132.9903 16.46877525275455
Epoch: 2025-04-12T01:23Z
TLE epoch observation values (Epoch: 2025-04-12T01:23:41.144Z)
Latitude
33.89383°
Longitude
-113.84347°
Altitude
153.361 km
Speed
7.817 km/s
True Right ascension
07h 10m 20s
True Declination
33° 43' 12"
Sunlit
Object was in daylight at epoch
Visualization orbit readout
Latitude
Unknown
Longitude
Unknown
Altitude
Unknown
Speed
Unknown
Apparent Right ascension
Unknown
Apparent Declination
Unknown
Sunlit
N/A
Visualization observer readout
Local Sidereal Time
15:16:23
Azimuth
Unknown
Elevation
Unknown
Doppler factor
Unknown
Orbital elements
Apogee altitude
152.901 km
Perigee altitude
142.825 km
Semi-major axis
6,526 km
Eccentricity
0.00077
Inclination
53.0264°
RAAN
77.3966°
Arg. of periapsis
271.0477°
True anomaly
133.05497°
Mean anomaly
132.9903°
Eccentric anomaly
133.02264°
Mean motion
4.11692 °/min
Orbital period
87.44 mins
BSTAR
0.00030076
Loading maneuver chart data...
Computing Atmospheric mass density...

Documentation

Showing up to 5 results
|